Location: Altenhof
(50.2418°N, 10.8789°E)
Time: 23:41:49
(UTC+00:00)

CZ-4B R/B - Pass Details

Date: 18 February 2020
Orbit: 808 x 882 km, 99.1° (Epoch: 04 April)

Event Time Altitude Azimuth Distance (km) Brightness Sun altitude
Rises 04:52:08 0° 18° (NNE) 3,373 6.6 -15.2°
Reaches altitude 10° 04:54:34 10° 23° (NNE) 2,427 5.9 -14.8°
Maximum altitude 04:59:50 56° 101° (ESE) 968 3.9 -13.9°
Drops below altitude 10° 05:05:00 10° 180° (S) 2,388 5.6 -13.1°
Sets 05:07:22 0° 184° (S) 3,314 6.3 -12.7°
